Regional Weather Roundup
Issued by NWS Binghamton, NY

Home | Current Version | Previous Version | Text Only | Print | Product List | Glossary On
Versions: 1 2 3 4 5 6 7 8 9 10 11 12 13 14 15 16 17 18 19 20 21 22 23 24 25 26 27 28 29 30 31 32 33 34 35 36 37 38 39 40 41 42 43 44 45 46 47 48 49 50
729
ASUS41 KBGM 211910
RWRBGM

REGIONAL WEATHER ROUNDUP
NATIONAL WEATHER SERVICE BINGHAMTON NY
200 PM EST WED FEB 21 2018

Note: "fair" indicates few or no clouds below 12,000 feet with no
significant weather and/or obstructions to visibility.

* = Station(s) that does not report precipitation, such as rain,
snow, etc, also no thunder or fog.

NYZ009-015>018-022>025-036-037-044>046-055>057-062-212000
...Central New York...

CITY           SKY/WX    TMP DP  RH WIND       PRES   REMARKS
Binghamton     CLOUDY    55  51  86 N17       30.23R
Cortland       DRIZZLE   45  43  93 NW3       30.31R
Dansville      CLOUDY    43  39  86 NW12      30.36R
Elmira         CLOUDY    50  46  86 NE18      30.27R
Seneca Falls   LGT RAIN  43  39  87 CALM      30.34R
Ithaca         LGT RAIN  42  40  92 NW14      30.32R
Hornell        LGT RAIN  43  39  87 N9        30.36R
Monticello     FAIR      73  55  53 W10G31    30.20S
Oneonta        MOSUNNY   66 N/A N/A W14G21    30.16S
Penn Yan       CLOUDY    44  37  76 W7        30.32R
Rome           LGT RAIN  47  45  93 W17       30.28R FOG
Sidney         CLOUDY    68  52  56 W10G18    30.16S
Syracuse       LGT RAIN  42  42 100 W9        30.31R FOG
$$

PAZ038>040-043-044-047-048-072-212000
...Northeast Pennsylvania...

CITY           SKY/WX    TMP DP  RH WIND       PRES   REMARKS
Scranton       FAIR      75  55  49 SW15G25   30.19F
$$
&&
KEY
WCI = Wind Chill Index
VSB = Visibility
HX  = Heat Index
$$




USA.gov is the U.S. government's official web portal to all federal, state and local government web resources and services.